Overview Statistics Trail Chart Weather Telemetry Raw packets
 

This is the latest recevied weather packets stored in our database for station/object K3RUP-1. If no packets are shown the sender has not sent any weather packets the latest 10 day(s).

<< 28 29 30 31 32 33 34 >>
Time Temp. Humidity Pressure Rain* Wind** Luminosity Snow
1788501429 22.22° C 99% 1011.9 hPa 0 mm - 0 W/m² -
1788501123 22.22° C 99% 1011.7 hPa 0 mm - 0 W/m² -
1788500819 22.78° C 99% 1011.8 hPa 0 mm - 0 W/m² -
1788500515 22.78° C 99% 1011.5 hPa 0 mm - 0 W/m² -
1788500210 22.78° C 99% 1011.6 hPa 0 mm - 0 W/m² -
1788499904 22.78° C 99% 1011.8 hPa 0 mm - 0 W/m² -
1788499601 22.78° C 98% 1012.1 hPa 0 mm - 0 W/m² -
1788499296 22.78° C 98% 1012.2 hPa 0 mm - 0 W/m² -
1788498993 22.78° C 98% 1012.4 hPa 0 mm - 0 W/m² -
1788498693 22.78° C 97% 1012.8 hPa 1.27 mm - 0 W/m² -
1788498389 23.33° C 97% 1012.8 hPa 1.27 mm - 0 W/m² -
1788498085 23.33° C 97% 1012.6 hPa 1.27 mm - 0 W/m² -
1788497779 23.33° C 96% 1013.2 hPa 0 mm - 0 W/m² -
1788497474 23.33° C 95% 1013.4 hPa 4.83 mm - 0 W/m² -
1788497169 23.89° C 94% 1013.3 hPa 10.67 mm - 0 W/m² -
1788496866 24.44° C 91% 1014 hPa 10.67 mm - 0 W/m² -
1788496568 25.56° C 85% 1014.4 hPa 4.83 mm - 0 W/m² -
1788496257 26.11° C 81% 1014 hPa 0 mm - 0 W/m² -
1788495953 26.67° C 87% 1013.7 hPa 0 mm - 0 W/m² -
1788495648 26.67° C 89% 1013 hPa 0 mm - 0 W/m² -
1788495344 26.67° C 89% 1012.6 hPa 0 mm - 0 W/m² -
1788495040 26.11° C 88% 1012.6 hPa 0 mm - 0 W/m² -
1788494740 26.67° C 89% 1012.7 hPa 0 mm - 0 W/m² -
1788494437 26.67° C 91% 1012.4 hPa 0 mm - 0 W/m² -
1788494137 26.67° C 92% 1011.9 hPa 0 mm - 0 W/m² -

* Rain latest hour (hover to see other rain measurements)
** Current wind speed in m/s (hover to see current wind gust speed)